Tracking 18852 objects as of 23-Nov-2017
HD Live streaming from Space Station
objects crossing your sky now

FENGYUN 1C DEB

Track FENGYUN 1C DEB now!
10-day predictions


NORAD ID: 30552
Int'l Code: 1999-025AKS
Perigee: 815.9 km
Apogee: 847.9 km
Inclination: 98.9 °
Period: 101.4 minutes
Semi major axis: 7202 km
RCS: 0.0144 m2 (small)
Launch date: May 10, 1999
Source: People's Republic of China (PRC)
Launch site: Taiyaun Space Center, China (TSC)

Note: This is SATELLITE DEBRIS
aabbcc
Your satellite tracking list
Your tracking list is empty




NASA's NSSDC Master Catalog

Two Line Element Set (TLE):
1 30552U 99025AKS 17327.14957630  .00001094  00000-0  53284-3 0  9994
2 30552  98.9107  20.0290 0022233 157.9545 261.8920 14.20165964556891
Source of the keplerian elements: AFSPC